Simultaneous Nadir Overpasses (SNOs) Predictions

Prediction of SNOs between NOAA-20 and NOAA-19 Satellite Orbit:

Table of predicted SNOs for the next 14.0 days since TLE Epoch: 10/21/2023
Index Date (NOAA-20) Time (NOAA-20) Lat,Lon (NOAA-20) SZA (NOAA-20 ) Date (NOAA-19) Time (NOAA-19) Lat,Lon (NOAA-19) SZA (NOAA-19 ) Distance(km) Time Diff (sec)
1 10/30/2023 01:03:37 74.29, 152.55 87.97 10/30/2023 01:02:24 74.29, 151.75 88.01 24.06 73
2 10/30/2023 01:54:24 -74.43, -40.50 91.87 10/30/2023 01:53:17 -74.42, -40.62 91.87 3.56 67
3 10/30/2023 02:45:10 74.45, 126.76 88.16 10/30/2023 02:44:19 74.46, 126.74 88.19 1.87 51
4 10/30/2023 03:35:54 -74.44, -65.91 91.84 10/30/2023 03:35:15 -74.45, -66.02 91.82 3.38 39
5 10/30/2023 04:26:41 74.51, 101.23 88.25 10/30/2023 04:26:17 74.50, 101.34 88.24 3.70 24
6 10/30/2023 05:17:25 -74.50, -91.44 91.75 10/30/2023 05:17:13 -74.48, -91.42 91.76 2.08 12
7 10/30/2023 06:08:11 74.52, 75.82 88.29 10/30/2023 06:08:15 74.53, 75.95 88.29 3.88 4
8 10/30/2023 06:58:55 -74.51,-116.85 91.71 10/30/2023 06:59:11 -74.52,-116.82 91.71 1.10 16
9 10/30/2023 07:49:41 74.53, 50.41 88.32 10/30/2023 07:50:14 74.52, 50.41 88.30 1.82 33
10 10/30/2023 08:40:25 -74.53,-142.26 91.68 10/30/2023 08:41:09 -74.55,-142.22 91.66 3.00 44
11 10/30/2023 09:31:11 74.54, 25.01 88.36 10/30/2023 09:32:12 74.55, 25.02 88.36 0.61 61
12 10/30/2023 10:21:55 -74.54,-167.66 91.64 10/30/2023 10:23:08 -74.54,-167.75 91.65 2.52 73
13 10/30/2023 11:12:53 75.13, -2.01 89.03 10/30/2023 11:13:59 75.10, 1.15 88.88 90.26 66



Historial Predications of SNOs between NOAA-20 and NOAA-19
